QPF
0.00 0.00 0.00 0.00 0.00 0.00 0.00 0.00 0.00 0.00 0.00 0.00 0.00 0.00 0.00 0.00 0.00 0.00 0.00 0.00 0.00 0.00 0.00 0.00 0.00 0.00 0.00 0.00 0.00 0.00 0.00 0.00 0.00 0.00 0.00 0.00 0.00 0.00 0.00 0.00 0.00 0.00 0.00 0.00 0.00 0.00 0.00 0.00 0.00 0.00 0.00 0.00 0.00 0.00 0.00 0.00 0.00 0.00 0.00 0.00 0.00 0.00 0.00
0.00 0.00 0.00 0.00 0.00 0.00 0.00 0.00 0.00 0.00 0.00 0.00 0.00 0.00 0.00 0.00 0.00 0.00 0.00 0.00 0.00 0.00 0.00 0.00 0.00 0.00 0.00 0.00 0.00 0.00 0.00 0.00 0.00 0.00 0.00 0.00 0.00 0.00 0.00 0.00 0.00 0.00 0.00 0.00 0.00 0.00 0.00 0.00 0.00 0.00 0.00 0.00 0.00 0.00 0.00 0.00 0.00 0.00 0.00 0.00 0.00 0.00 0.00
0.00 0.00 0.00 0.00 0.00 0.00 0.00 0.00 0.00 0.00 0.00 0.00 0.00 0.00 0.00 0.00 0.00 0.00 0.00 0.00 0.00 0.00 0.00 0.00 0.00 0.00 0.00 0.00 0.00 0.00 0.00 0.00 0.00 0.00 0.00 0.00 0.00 0.00 0.00 0.00 0.00 0.00 0.00 0.00 0.00 0.00 0.00 0.00 0.00 0.00 0.00 0.00 0.00 0.00 0.00 0.00 0.00 0.00 0.00 0.00 0.00 0.00 0.00
0.00 0.00 0.00 0.00 0.00 0.00 0.00 0.00 0.00 0.00 0.00 0.00 0.00 0.00 0.00 0.00 0.00 0.00 0.00 0.00 0.00 0.00 0.00 0.00 0.00 0.00 0.00 0.00 0.00 0.00 0.00 0.00 0.00 0.00 0.00 0.00 0.00 0.00 0.00 0.00 0.00 0.00 0.00 0.00 0.00 0.00 0.00 0.00 0.00 0.00 0.00 0.00 0.00 0.00 0.00 0.00 0.00 0.00 0.00 0.00 0.00 0.00 0.00
0.00 0.00 0.00 0.00 0.00 0.00 0.00 0.00 0.00 0.00 0.00 0.00 0.00 0.00 0.00 0.00 0.00 0.00 0.00 0.00 0.00 0.00 0.00 0.00 0.00 0.00 0.00 0.00 0.00 0.00 0.00 0.00 0.00 0.00 0.00 0.00 0.00 0.00 0.00 0.00 0.00 0.00 0.00 0.00 0.00 0.00 0.00 0.00 0.00 0.00 0.00 0.00 0.00 0.00 0.00 0.00 0.00 0.00 0.00 0.00 0.00 0.00 0.00
0.00 0.00 0.00 0.00 0.00 0.00 0.00 0.00 0.00 0.00 0.00 0.00 0.00 0.00 0.00 0.00 0.00 0.00 0.00 0.00 0.00 0.00 0.00 0.00 0.00 0.00 0.00 0.00 0.00 0.00 0.00 0.00 0.00 0.00 0.00 0.00 0.00 0.00 0.00 0.00 0.00 0.00 0.00 0.00 0.00 0.00 0.00 0.00 0.00 0.00 0.00 0.00 0.00 0.00 0.00 0.00 0.00 0.00 0.00 0.00 0.00 0.00 0.00
0.00 0.00 0.00 0.00 0.00 0.00 0.00 0.00 0.00 0.00 0.00 0.00 0.00 0.00 0.00 0.00 0.00 0.00 0.00 0.00 0.00 0.00 0.00 0.00 0.00 0.00 0.00 0.00 0.00 0.00 0.00 0.00 0.00 0.00 0.00 0.00 0.00 0.00 0.00 0.00 0.00 0.00 0.00 0.00 0.00 0.00 0.00 0.00 0.00 0.00 0.00 0.00 0.00 0.00 0.00 0.00 0.00 0.00 0.00 0.00 0.00 0.00 0.00
0.00 0.00 0.00 0.00 0.00 0.00 0.00 0.00 0.00 0.00 0.00 0.00 0.00 0.00 0.00 0.00 0.00 0.00 0.00 0.00 0.00 0.00 0.00 0.00 0.00 0.00 0.00 0.00 0.00 0.00 0.00 0.00 0.00 0.00 0.00 0.00 0.00 0.00 0.00 0.00 0.00 0.00 0.00 0.00 0.00 0.00 0.00 0.00 0.00 0.00 0.00 0.00 0.00 0.00 0.00 0.00 0.00 0.00 0.00 0.00 0.00 0.00 0.00
0.00 0.00 0.00 0.00 0.00 0.00 0.00 0.00 0.00 0.00 0.00 0.00 0.00 0.00 0.00 0.00 0.00 0.00 0.00 0.00 0.00 0.00 0.00 0.00 0.00 0.00 0.00 0.00 0.00 0.00 0.00 0.00 0.00 0.00 0.00 0.00 0.00 0.00 0.00 0.00 0.00 0.00 0.00 0.00 0.00 0.00 0.00 0.00 0.00 0.00 0.00 0.00 0.00 0.00 0.00 0.00 0.00 0.00 0.00 0.00 0.00 0.00 0.00
0.00 0.00 0.00 0.00 0.00 0.00 0.00 0.00 0.00 0.00 0.00 0.00 0.00 0.00 0.00 0.00 0.00 0.00 0.00 0.00 0.00 0.00 0.00 0.00 0.00 0.00 0.00 0.00 0.00 0.00 0.00 0.00 0.00 0.00 0.00 0.00 0.00 0.00 0.00 0.00 0.00 0.00 0.00 0.00 0.00 0.00 0.00 0.00 0.00 0.00 0.00 0.00 0.00 0.00 0.00 0.00 0.00 0.00 0.00 0.00 0.00 0.00 0.00
0.00 0.00 0.00 0.00 0.00 0.00 0.00 0.00 0.00 0.00 0.00 0.00 0.00 0.00 0.00 0.00 0.00 0.00 0.00 0.00 0.00 0.00 0.00 0.00 0.00 0.00 0.00 0.00 0.00 0.00 0.00 0.00 0.00 0.00 0.00 0.00 0.00 0.00 0.00 0.00 0.00 0.00 0.00 0.00 0.00 0.00 0.00 0.00 0.00 0.00 0.00 0.00 0.00 0.00 0.00 0.00 0.00 0.00 0.00 0.00 0.00 0.00 0.00
0.00 0.00 0.00 0.00 0.00 0.00 0.00 0.00 0.00 0.00 0.00 0.00 0.00 0.00 0.00 0.00 0.00 0.00 0.00 0.00 0.00 0.00 0.00 0.00 0.00 0.00 0.00 0.00 0.00 0.00 0.00 0.00 0.00 0.00 0.00 0.00 0.00 0.00 0.00 0.00 0.00 0.00 0.00 0.00 0.00 0.00 0.00 0.00 0.00 0.00 0.00 0.00 0.00 0.00 0.00 0.00 0.00 0.00 0.00 0.00 0.00 0.00 0.00
0.00 0.00 0.00 0.00 0.00 0.00 0.00 0.00 0.00 0.00 0.00 0.00 0.00 0.00 0.00 0.00 0.00 0.00 0.00 0.00 0.00 0.00 0.00 0.00 0.00 0.00 0.00 0.00 0.00 0.00 0.00 0.00 0.00 0.00 0.00 0.00 0.00 0.00 0.00 0.00 0.00 0.00 0.00 0.00 0.00 0.00 0.00 0.00 0.00 0.00 0.00 0.00 0.00 0.00 0.00 0.00 0.00 0.00 0.00 0.00 0.00 0.00 0.00
0.00 0.00 0.00 0.00 0.00 0.00 0.00 0.00 0.00 0.00 0.00 0.00 0.00 0.00 0.00 0.00 0.00 0.00 0.00 0.00 0.00 0.00 0.00 0.00 0.00 0.00 0.00 0.00 0.00 0.00 0.00 0.00 0.00 0.00 0.00 0.00 0.00 0.00 0.00 0.00 0.00 0.00 0.00 0.00 0.00 0.00 0.00 0.00 0.00 0.00 0.00 0.00 0.00 0.00 0.00 0.00 0.00 0.00 0.00 0.00 0.00 0.00 0.00
0.00 0.00 0.00 0.00 0.00 0.00 0.00 0.00 0.00 0.00 0.00 0.00 0.00 0.00 0.00 0.00 0.00 0.00 0.00 0.00 0.00 0.00 0.00 0.00 0.00 0.00 0.00 0.00 0.00 0.00 0.00 0.00 0.00 0.00 0.00 0.00 0.00 0.00 0.00 0.00 0.00 0.00 0.00 0.00 0.00 0.00 0.00 0.00 0.00 0.00 0.00 0.00 0.00 0.00 0.00 0.00 0.00 0.00 0.00 0.00 0.00 0.00 0.00
0.00 0.00 0.00 0.00 0.00 0.00 0.00 0.00 0.00 0.00 0.00 0.00 0.00 0.00 0.00 0.00 0.00 0.00 0.00 0.00 0.00 0.00 0.00 0.00 0.00 0.00 0.00 0.00 0.00 0.00 0.00 0.00 0.00 0.00 0.00 0.00 0.00 0.00 0.00 0.00 0.00 0.00 0.00 0.00 0.00 0.00 0.00 0.00 0.00 0.00 0.00 0.00 0.00 0.00 0.00 0.00 0.00 0.00 0.00 0.00 0.00 0.00 0.00
0.00 0.00 0.00 0.00 0.00 0.00 0.00 0.00 0.00 0.00 0.00 0.00 0.00 0.00 0.00 0.00 0.00 0.00 0.00 0.00 0.00 0.00 0.00 0.00 0.00 0.00 0.00 0.00 0.00 0.00 0.00 0.00 0.00 0.00 0.00 0.00 0.00 0.00 0.00 0.00 0.00 0.00 0.00 0.00 0.00 0.00 0.00 0.00 0.00 0.00 0.00 0.00 0.00 0.00 0.00 0.00 0.00 0.00 0.00 0.00 0.00 0.00 0.00
0.00 0.00 0.00 0.00 0.00 0.00 0.00 0.00 0.00 0.00 0.00 0.00 0.00 0.00 0.00 0.00 0.00 0.00 0.00 0.00 0.00 0.00 0.00 0.00 0.00 0.00 0.00 0.00 0.00 0.00 0.00 0.00 0.00 0.00 0.00 0.00 0.00 0.00 0.00 0.00 0.00 0.00 0.00 0.00 0.00 0.00 0.00 0.00 0.00 0.00 0.00 0.00 0.00 0.00 0.00 0.00 0.00 0.00 0.00 0.00 0.00 0.00 0.00
0.00 0.00 0.00 0.00 0.00 0.00 0.00 0.00 0.00 0.00 0.00 0.00 0.00 0.00 0.00 0.00 0.00 0.00 0.00 0.00 0.00 0.00 0.00 0.00 0.00 0.00 0.00 0.00 0.00 0.00 0.00 0.00 0.00 0.00 0.00 0.00 0.00 0.00 0.00 0.00 0.00 0.00 0.00 0.00 0.00 0.00 0.00 0.00 0.00 0.00 0.00 0.00 0.00 0.00 0.00 0.00 0.00 0.00 0.00 0.00 0.00 0.00 0.00
0.00 0.00 0.00 0.00 0.00 0.00 0.00 0.00 0.00 0.00 0.00 0.00 0.00 0.00 0.00 0.00 0.00 0.00 0.00 0.00 0.00 0.00 0.00 0.00 0.00 0.00 0.00 0.00 0.00 0.00 0.00 0.00 0.00 0.00 0.00 0.00 0.00 0.00 0.00 0.00 0.00 0.00 0.00 0.00 0.00 0.00 0.00 0.00 0.00 0.00 0.00 0.00 0.00 0.00 0.00 0.00 0.00 0.00 0.00 0.00 0.00 0.00 0.00
0.00 0.00 0.00 0.00 0.00 0.00 0.00 0.00 0.00 0.00 0.00 0.00 0.00 0.00 0.00 0.00 0.00 0.00 0.00 0.00 0.00 0.00 0.00 0.00 0.00 0.00 0.00 0.00 0.00 0.00 0.00 0.00 0.00 0.00 0.00 0.00 0.00 0.00 0.00 0.00 0.00 0.00 0.00 0.00 0.00 0.00 0.00 0.00 0.00 0.00 0.00 0.00 0.00 0.00 0.00 0.00 0.00 0.00 0.00 0.00 0.00 0.00 0.00
0.00 0.00 0.00 0.00 0.00 0.00 0.00 0.00 0.00 0.00 0.00 0.00 0.00 0.00 0.00 0.00 0.00 0.00 0.00 0.00 0.00 0.00 0.00 0.00 0.00 0.00 0.00 0.00 0.00 0.00 0.00 0.00 0.00 0.00 0.00 0.00 0.00 0.00 0.00 0.00 0.00 0.00 0.00 0.00 0.00 0.00 0.00 0.00 0.00 0.00 0.00 0.00 0.00 0.00 0.00 0.00 0.00 0.00 0.00 0.00 0.00 0.00 0.00
0.00 0.00 0.00 0.00 0.00 0.00 0.00 0.00 0.00 0.00 0.00 0.00 0.00 0.00 0.00 0.00 0.00 0.00 0.00 0.00 0.00 0.00 0.00 0.00 0.00 0.00 0.00 0.00 0.00 0.00 0.00 0.00 0.00 0.00 0.00 0.00 0.00 0.00 0.00 0.00 0.00 0.00 0.00 0.00 0.00 0.00 0.00 0.00 0.00 0.00 0.00 0.00 0.00 0.00 0.00 0.00 0.00 0.00 0.00 0.00 0.00 0.00 0.00
0.00 0.00 0.00 0.00 0.00 0.00 0.00 0.00 0.00 0.00 0.00 0.00 0.00 0.00 0.00 0.00 0.00 0.00 0.00 0.00 0.00 0.00 0.00 0.00 0.00 0.00 0.00 0.00 0.00 0.00 0.00 0.00 0.00 0.00 0.00 0.00 0.00 0.00 0.00 0.00 0.00 0.00 0.00 0.00 0.00 0.00 0.00 0.00 0.00 0.00 0.00 0.00 0.00 0.00 0.00 0.00 0.00 0.00 0.00 0.00 0.00 0.00 0.00
0.00 0.00 0.00 0.00 0.00 0.00 0.00 0.00 0.00 0.00 0.00 0.00 0.00 0.00 0.00 0.00 0.00 0.00 0.00 0.00 0.00 0.00 0.00 0.00 0.00 0.00 0.00 0.00 0.00 0.00 0.00 0.00 0.00 0.00 0.00 0.00 0.00 0.00 0.00 0.00 0.00 0.00 0.00 0.00 0.00 0.00 0.00 0.00 0.00 0.00 0.00 0.00 0.00 0.00 0.00 0.00 0.00 0.00 0.00 0.00 0.00 0.00 0.00
0.00 0.00 0.00 0.00 0.00 0.00 0.00 0.00 0.00 0.00 0.00 0.00 0.00 0.00 0.00 0.00 0.00 0.00 0.00 0.00 0.00 0.00 0.00 0.00 0.00 0.00 0.00 0.00 0.00 0.00 0.00 0.00 0.00 0.00 0.00 0.00 0.00 0.00 0.00 0.00 0.00 0.00 0.00 0.00 0.00 0.00 0.00 0.00 0.00 0.00 0.00 0.00 0.00 0.00 0.00 0.00 0.00 0.00 0.00 0.00 0.00 0.00 0.00
0.00 0.00 0.00 0.00 0.00 0.00 0.00 0.00 0.00 0.00 0.00 0.00 0.00 0.00 0.00 0.00 0.00 0.00 0.00 0.00 0.00 0.00 0.00 0.00 0.00 0.00 0.00 0.00 0.00 0.00 0.00 0.00 0.00 0.00 0.00 0.00 0.00 0.00 0.00 0.00 0.00 0.00 0.00 0.00 0.00 0.00 0.00 0.00 0.00 0.00 0.00 0.00 0.00 0.00 0.00 0.00 0.00 0.00 0.00 0.00 0.00 0.00 0.00
0.01 0.00 0.00 0.00 0.00 0.00 0.00 0.00 0.00 0.00 0.00 0.00 0.00 0.00 0.00 0.00 0.00 0.00 0.00 0.00 0.00 0.00 0.00 0.00 0.00 0.00 0.00 0.00 0.00 0.00 0.00 0.00 0.00 0.00 0.00 0.00 0.00 0.00 0.00 0.00 0.00 0.00 0.00 0.00 0.00 0.00 0.00 0.00 0.00 0.00 0.00 0.00 0.00 0.00 0.00 0.00 0.00 0.00 0.00 0.00 0.00 0.00 0.00
0.03 0.02 0.00 0.00 0.00 0.00 0.00 0.00 0.00 0.00 0.00 0.00 0.00 0.00 0.00 0.00 0.00 0.00 0.00 0.00 0.00 0.00 0.00 0.00 0.00 0.00 0.00 0.00 0.00 0.00 0.00 0.00 0.00 0.00 0.00 0.00 0.00 0.00 0.00 0.00 0.00 0.00 0.00 0.00 0.00 0.00 0.00 0.00 0.00 0.00 0.00 0.00 0.00 0.00 0.00 0.00 0.00 0.00 0.00 0.00 0.00 0.00 0.00
0.03 0.02 0.01 0.00 0.00 0.00 0.00 0.00 0.00 0.00 0.00 0.00 0.00 0.00 0.00 0.00 0.00 0.00 0.00 0.00 0.00 0.00 0.00 0.00 0.00 0.00 0.00 0.00 0.00 0.00 0.00 0.00 0.00 0.00 0.00 0.00 0.00 0.00 0.00 0.00 0.00 0.00 0.00 0.00 0.00 0.00 0.00 0.00 0.00 0.00 0.00 0.00 0.00 0.00 0.00 0.00 0.00 0.00 0.00 0.00 0.00 0.00 0.00
0.07 0.03 0.00 0.01 0.01 0.00 0.00 0.00 0.00 0.00 0.00 0.00 0.00 0.00 0.00 0.00 0.00 0.00 0.00 0.00 0.00 0.00 0.00 0.00 0.00 0.00 0.00 0.00 0.00 0.00 0.00 0.00 0.00 0.00 0.00 0.00 0.00 0.00 0.00 0.00 0.00 0.00 0.00 0.00 0.00 0.00 0.00 0.00 0.00 0.00 0.00 0.00 0.00 0.00 0.00 0.00 0.00 0.00 0.00 0.00 0.00 0.00 0.00
0.03 0.01 0.00 0.00 0.00 0.00 0.00 0.00 0.00 0.00 0.00 0.00 0.00 0.00 0.00 0.00 0.00 0.00 0.00 0.00 0.00 0.00 0.00 0.00 0.00 0.00 0.00 0.00 0.00 0.00 0.00 0.00 0.00 0.00 0.00 0.00 0.00 0.00 0.00 0.00 0.00 0.00 0.00 0.00 0.00 0.00 0.00 0.00 0.00 0.00 0.00 0.00 0.00 0.00 0.01 0.00 0.00 0.00 0.00 0.00 0.00 0.00 0.00
0.04 0.03 0.01 0.01 0.01 0.00 0.00 0.00 0.00 0.00 0.00 0.00 0.00 0.00 0.00 0.00 0.00 0.00 0.00 0.00 0.00 0.00 0.00 0.00 0.00 0.00 0.00 0.00 0.00 0.00 0.00 0.00 0.00 0.00 0.00 0.00 0.00 0.00 0.00 0.00 0.00 0.00 0.00 0.00 0.00 0.00 0.00 0.00 0.00 0.00 0.00 0.00 0.00 0.01 0.00 0.01 0.01 0.00 0.00 0.00 0.00 0.00 0.00
0.03 0.03 0.01 0.01 0.02 0.02 0.01 0.01 0.01 0.01 0.01 0.00 0.00 0.00 0.00 0.00 0.00 0.00 0.00 0.00 0.00 0.00 0.00 0.00 0.00 0.00 0.00 0.00 0.00 0.00 0.00 0.00 0.00 0.00 0.00 0.00 0.00 0.00 0.00 0.00 0.00 0.00 0.00 0.00 0.00 0.00 0.00 0.00 0.00 0.00 0.00 0.00 0.01 0.01 0.00 0.01 0.01 0.00 0.00 0.02 0.01 0.00 0.00
0.15 0.03 0.01 0.00 0.01 0.03 0.01 0.01 0.01 0.01 0.02 0.01 0.01 0.00 0.00 0.00 0.00 0.00 0.00 0.00 0.00 0.00 0.00 0.00 0.00 0.00 0.00 0.00 0.00 0.00 0.00 0.00 0.00 0.00 0.00 0.00 0.00 0.00 0.00 0.00 0.00 0.00 0.00 0.00 0.01 0.00 0.02 0.00 0.01 0.00 0.00 0.00 0.00 0.00 0.01 0.00 0.03 0.02 0.01 0.01 0.00 0.01 0.03
0.18 0.03 0.00 0.00 0.00 0.02 0.02 0.00 0.01 0.01 0.01 0.01 0.01 0.01 0.00 0.00 0.00 0.00 0.00 0.00 0.00 0.00 0.00 0.00 0.00 0.00 0.00 0.00 0.00 0.00 0.00 0.00 0.00 0.00 0.00 0.00 0.00 0.00 0.00 0.00 0.00 0.00 0.00 0.00 0.00 0.00 0.00 0.00 0.01 0.01 0.01 0.02 0.02 0.00 0.02 0.02 0.01 0.01 0.00 0.00 0.00 0.00 0.00
0.12 0.02 0.01 0.00 0.00 0.01 0.02 0.01 0.00 0.00 0.00 0.00 0.00 0.00 0.01 0.01 0.01 0.01 0.00 0.00 0.00 0.00 0.00 0.00 0.00 0.00 0.00 0.00 0.00 0.00 0.00 0.00 0.00 0.00 0.00 0.00 0.00 0.00 0.00 0.00 0.00 0.00 0.00 0.00 0.00 0.00 0.00 0.00 0.00 0.00 0.00 0.00 0.01 0.01 0.00 0.00 0.00 0.00 0.00 0.00 0.00 0.00 0.00
0.16 0.05 0.01 0.00 0.00 0.00 0.01 0.01 0.00 0.00 0.00 0.00 0.00 0.00 0.00 0.00 0.00 0.00 0.00 0.00 0.01 0.01 0.01 0.00 0.00 0.00 0.00 0.00 0.00 0.00 0.00 0.00 0.00 0.00 0.00 0.00 0.00 0.00 0.00 0.00 0.00 0.00 0.00 0.00 0.00 0.00 0.00 0.00 0.00 0.00 0.00 0.00 0.00 0.00 0.00 0.00 0.00 0.00 0.00 0.00 0.00 0.00 0.00
MSLP
1003.51 1003.95 1004.27 1004.63 1005.23 1005.51 1005.71 1006.07 1006.39 1006.83 1007.15 1007.59 1007.95 1008.31 1008.67 1008.99 1009.31 1009.75 1010.27 1010.75 1011.31 1011.87 1012.07 1012.39 1012.79 1013.19 1013.67 1013.99 1014.31 1014.55 1014.79 1015.15 1015.35 1015.71 1015.95 1016.11 1016.15 1016.35 1016.67 1016.71 1017.03 1017.19 1017.15 1017.43 1017.55 1017.71 1017.75 1017.83 1018.07 1018.27 1018.47 1018.71 1018.91 1019.11 1019.31 1019.39 1019.59 1019.67 1019.79 1019.95 1020.15 1020.27 1020.35
1003.23 1003.47 1003.71 1003.99 1004.59 1004.95 1005.07 1005.35 1005.79 1006.15 1006.63 1006.95 1007.39 1007.79 1008.03 1008.43 1008.83 1009.31 1009.71 1010.11 1010.59 1011.07 1011.51 1011.91 1012.39 1012.75 1013.11 1013.47 1013.71 1014.15 1014.51 1014.75 1015.03 1015.23 1015.43 1015.71 1015.83 1015.91 1016.03 1016.31 1016.55 1016.83 1016.87 1016.87 1016.95 1017.15 1017.35 1017.63 1017.83 1018.15 1018.39 1018.51 1018.71 1018.79 1019.03 1019.19 1019.35 1019.51 1019.59 1019.83 1020.07 1020.23 1020.27
1002.67 1002.79 1003.03 1003.43 1003.91 1004.27 1004.63 1004.87 1005.31 1005.51 1005.87 1006.23 1006.67 1007.15 1007.43 1007.71 1008.03 1008.55 1009.11 1009.63 1010.27 1010.63 1010.95 1011.39 1011.79 1012.23 1012.59 1012.99 1013.51 1013.87 1014.03 1014.39 1014.67 1014.99 1015.31 1015.35 1015.51 1015.55 1015.63 1015.87 1016.11 1016.31 1016.43 1016.51 1016.67 1016.91 1017.07 1017.39 1017.59 1017.79 1018.03 1018.27 1018.39 1018.63 1018.75 1018.99 1019.15 1019.27 1019.43 1019.59 1019.87 1020.07 1020.23
1002.35 1002.27 1002.31 1002.51 1002.91 1003.23 1003.71 1004.07 1004.55 1004.75 1004.95 1005.27 1005.71 1006.15 1006.71 1007.23 1007.47 1007.95 1008.43 1008.91 1009.67 1010.15 1010.63 1010.87 1011.31 1011.79 1012.15 1012.63 1013.07 1013.43 1013.75 1013.91 1014.19 1014.43 1014.67 1014.75 1015.03 1015.19 1015.43 1015.67 1015.83 1015.87 1016.19 1016.35 1016.35 1016.51 1016.67 1017.03 1017.35 1017.59 1017.83 1018.07 1018.23 1018.27 1018.55 1018.71 1018.83 1019.07 1019.23 1019.43 1019.63 1019.75 1019.99
1001.83 1001.75 1001.83 1002.23 1002.67 1003.11 1003.47 1003.75 1004.03 1004.31 1004.47 1004.51 1004.87 1005.39 1005.87 1006.43 1006.95 1007.43 1007.95 1008.27 1008.67 1009.27 1009.51 1010.03 1010.51 1011.07 1011.55 1011.95 1012.39 1012.75 1013.11 1013.47 1013.79 1013.95 1014.15 1014.31 1014.47 1014.79 1015.15 1015.35 1015.51 1015.63 1015.67 1015.83 1016.03 1016.39 1016.63 1016.91 1017.11 1017.35 1017.63 1017.83 1018.03 1018.15 1018.39 1018.47 1018.67 1018.79 1019.03 1019.19 1019.51 1019.51 1019.75
1001.23 1001.51 1001.59 1001.63 1001.95 1002.31 1002.63 1002.83 1003.07 1003.35 1003.67 1004.11 1004.51 1005.07 1005.39 1005.87 1006.31 1006.87 1007.23 1007.79 1008.23 1008.63 1009.15 1009.63 1010.07 1010.51 1011.11 1011.31 1011.71 1012.15 1012.55 1012.91 1013.15 1013.47 1013.83 1014.03 1014.27 1014.59 1014.83 1014.95 1015.07 1015.31 1015.43 1015.67 1015.67 1015.99 1016.31 1016.63 1016.79 1016.99 1017.35 1017.47 1017.67 1017.83 1017.95 1018.23 1018.35 1018.47 1018.75 1018.99 1019.19 1019.31 1019.43
1000.59 1000.67 1000.87 1000.91 1001.11 1001.51 1001.87 1002.15 1002.27 1002.51 1002.83 1003.15 1003.55 1004.23 1004.75 1005.19 1005.67 1006.07 1006.59 1007.23 1007.63 1008.31 1008.67 1009.03 1009.31 1009.79 1010.39 1010.75 1011.23 1011.67 1012.19 1012.47 1012.83 1013.19 1013.35 1013.63 1013.87 1014.27 1014.39 1014.55 1014.67 1014.83 1014.91 1015.15 1015.55 1015.63 1016.07 1016.39 1016.55 1016.75 1016.95 1017.11 1017.31 1017.51 1017.75 1017.99 1018.15 1018.15 1018.43 1018.83 1019.07 1019.11 1019.23
999.87 1000.15 1000.19 1000.23 1000.35 1000.51 1000.87 1001.35 1001.59 1001.83 1002.31 1002.71 1003.35 1003.95 1004.43 1004.51 1005.03 1005.63 1006.11 1006.39 1006.91 1007.39 1007.95 1008.35 1008.83 1009.19 1009.71 1010.15 1010.55 1011.07 1011.55 1011.87 1012.15 1012.55 1012.91 1013.27 1013.51 1013.91 1014.07 1014.23 1014.43 1014.51 1014.71 1015.07 1015.23 1015.35 1015.67 1015.99 1016.15 1016.39 1016.63 1016.91 1017.11 1017.31 1017.43 1017.71 1017.95 1017.95 1018.11 1018.55 1018.87 1019.03 1018.95
999.19 999.35 999.63 999.59 999.63 999.67 999.95 1000.51 1000.99 1001.39 1002.03 1002.55 1002.83 1003.19 1003.59 1004.03 1004.39 1004.75 1005.15 1005.67 1006.19 1006.71 1007.15 1007.31 1007.83 1008.31 1009.07 1009.63 1010.15 1010.63 1010.95 1011.31 1011.75 1012.11 1012.51 1012.87 1013.07 1013.39 1013.55 1013.75 1013.99 1014.11 1014.55 1014.71 1014.83 1015.03 1015.23 1015.51 1015.75 1016.07 1016.35 1016.63 1016.83 1017.11 1017.31 1017.47 1017.67 1017.71 1017.91 1018.19 1018.55 1018.79 1018.75
998.87 999.27 999.31 999.03 998.83 998.99 999.43 999.99 1000.71 1001.31 1002.07 1002.55 1002.79 1003.11 1003.47 1003.59 1003.79 1004.11 1004.59 1004.99 1005.39 1005.95 1006.31 1006.79 1007.23 1007.75 1008.51 1009.11 1009.55 1009.95 1010.47 1010.95 1011.19 1011.59 1011.99 1012.39 1012.47 1012.83 1012.95 1013.07 1013.43 1013.67 1014.07 1014.27 1014.31 1014.71 1014.91 1015.07 1015.39 1015.71 1016.15 1016.47 1016.67 1016.87 1017.07 1017.23 1017.39 1017.47 1017.59 1017.87 1018.11 1018.35 1018.59
998.35 998.71 999.07 999.03 999.11 999.19 999.43 999.95 1000.75 1001.27 1001.51 1002.03 1002.35 1002.51 1002.91 1003.23 1003.51 1003.79 1004.11 1004.31 1004.75 1005.15 1005.51 1006.11 1006.51 1007.19 1007.91 1008.47 1009.03 1009.47 1009.99 1010.43 1010.67 1011.07 1011.43 1011.67 1011.83 1012.15 1012.35 1012.55 1012.79 1013.15 1013.59 1013.79 1014.07 1014.15 1014.51 1014.91 1015.03 1015.47 1015.87 1016.19 1016.39 1016.59 1016.79 1016.91 1017.03 1017.27 1017.31 1017.35 1017.51 1017.83 1017.99
999.43 999.23 999.67 999.75 999.55 999.63 999.95 1000.07 1000.39 1000.87 1001.27 1001.67 1001.87 1002.03 1002.43 1002.75 1002.95 1003.15 1003.39 1003.71 1003.87 1004.59 1005.15 1005.59 1005.95 1006.55 1007.35 1007.91 1008.51 1008.99 1009.43 1009.87 1010.15 1010.47 1010.83 1011.07 1011.27 1011.51 1011.79 1011.99 1012.31 1012.67 1013.07 1013.31 1013.67 1013.87 1013.99 1014.51 1014.79 1015.07 1015.51 1015.71 1015.91 1016.07 1016.31 1016.43 1016.63 1016.83 1016.99 1016.99 1017.11 1017.35 1017.51
999.83 1000.03 1000.11 1000.19 1000.23 999.99 1000.03 1000.39 1000.75 1000.95 1001.15 1001.27 1001.35 1001.47 1001.83 1002.23 1002.51 1002.67 1003.03 1003.43 1003.59 1003.91 1004.51 1005.03 1005.63 1006.23 1006.87 1007.39 1007.83 1008.39 1008.83 1009.19 1009.55 1009.79 1010.15 1010.55 1010.71 1010.91 1011.23 1011.55 1011.79 1012.11 1012.59 1012.79 1013.11 1013.51 1013.75 1013.95 1014.47 1014.63 1014.91 1015.27 1015.47 1015.67 1015.91 1016.11 1016.27 1016.47 1016.67 1016.75 1016.83 1017.03 1017.27
1000.47 999.99 999.75 999.75 999.99 1000.23 1000.43 1000.43 1000.51 1000.87 1001.03 1001.07 1001.27 1001.27 1001.55 1001.79 1002.03 1002.31 1002.67 1003.11 1003.23 1003.51 1004.07 1004.63 1005.15 1005.79 1006.39 1006.91 1007.43 1007.87 1008.19 1008.39 1008.79 1009.27 1009.63 1009.91 1010.31 1010.59 1010.83 1011.11 1011.39 1011.75 1012.03 1012.39 1012.87 1013.07 1013.27 1013.55 1013.99 1014.27 1014.47 1014.75 1015.03 1015.19 1015.39 1015.71 1015.95 1016.11 1016.27 1016.43 1016.59 1016.75 1016.95
1000.31 999.79 999.67 999.91 1000.03 1000.03 1000.19 1000.39 1000.55 1000.63 1000.71 1000.75 1000.83 1001.19 1001.43 1001.67 1001.91 1002.19 1002.55 1002.83 1003.11 1003.27 1003.67 1003.99 1004.75 1005.47 1006.03 1006.55 1007.03 1007.31 1007.51 1007.87 1008.31 1008.79 1009.27 1009.67 1010.11 1010.47 1010.67 1010.87 1011.19 1011.43 1011.75 1012.19 1012.51 1012.59 1012.75 1012.95 1013.27 1013.83 1014.19 1014.31 1014.55 1014.79 1014.95 1015.23 1015.51 1015.55 1015.83 1016.15 1016.35 1016.39 1016.59
1000.07 999.71 999.43 999.43 999.79 999.91 999.99 999.95 1000.11 1000.35 1000.47 1000.63 1000.71 1000.83 1000.99 1001.35 1001.67 1001.87 1002.19 1002.47 1002.63 1002.95 1003.11 1003.71 1004.51 1005.15 1005.59 1006.11 1006.47 1006.75 1007.15 1007.59 1007.99 1008.51 1008.95 1009.47 1009.95 1010.27 1010.47 1010.71 1011.03 1011.27 1011.67 1011.99 1012.23 1012.39 1012.55 1012.75 1012.95 1013.27 1013.75 1014.11 1014.31 1014.43 1014.59 1014.75 1014.75 1014.95 1015.31 1015.55 1015.75 1016.03 1016.11
1000.71 1000.63 1000.35 1000.07 999.63 999.43 999.59 999.75 999.67 999.99 1000.23 1000.43 1000.43 1000.43 1000.51 1000.71 1000.87 1001.15 1001.55 1001.95 1002.27 1002.67 1002.63 1003.11 1004.03 1004.59 1005.07 1005.55 1005.87 1006.31 1006.79 1007.35 1007.83 1008.23 1008.87 1009.15 1009.55 1009.95 1010.31 1010.59 1010.79 1011.15 1011.51 1011.79 1012.03 1012.23 1012.43 1012.63 1012.91 1012.99 1013.11 1013.55 1013.83 1014.11 1014.19 1014.19 1014.15 1014.55 1015.03 1015.35 1015.55 1015.59 1015.79
1001.35 1001.19 1000.83 1000.55 1000.35 1000.07 999.59 999.39 999.63 999.67 999.87 999.79 999.75 999.83 1000.03 1000.35 1000.59 1000.91 1001.19 1001.39 1001.75 1001.95 1002.15 1002.83 1003.55 1004.15 1004.67 1005.07 1005.59 1006.07 1006.59 1007.03 1007.47 1008.03 1008.47 1008.87 1009.35 1009.67 1009.99 1010.31 1010.67 1011.03 1011.31 1011.55 1011.87 1012.03 1012.11 1012.51 1012.67 1012.79 1012.83 1012.99 1013.23 1013.51 1013.59 1013.63 1013.71 1014.23 1014.71 1015.03 1015.27 1015.43 1015.39
1001.63 1001.15 1000.91 1000.75 1000.55 1000.27 999.95 999.51 998.87 998.99 998.91 998.75 998.95 999.19 999.23 999.39 999.95 1000.39 1000.39 1000.79 1000.95 1001.35 1001.95 1002.47 1003.07 1003.79 1004.47 1004.75 1005.27 1005.79 1006.27 1006.67 1007.23 1007.71 1008.15 1008.51 1008.87 1009.27 1009.71 1010.11 1010.47 1010.79 1011.03 1011.31 1011.35 1011.63 1012.07 1012.23 1012.43 1012.63 1012.67 1012.71 1012.99 1013.11 1012.99 1013.11 1013.27 1013.95 1014.35 1014.71 1014.99 1015.23 1015.39
1001.67 1001.39 1000.91 1000.51 1000.19 1000.03 999.75 999.35 998.95 998.07 997.99 998.11 998.03 997.99 998.03 998.43 999.03 999.27 999.51 1000.15 1000.83 1001.43 1001.79 1002.39 1002.95 1003.51 1004.15 1004.47 1004.91 1005.39 1005.87 1006.35 1006.87 1007.43 1007.79 1008.11 1008.55 1008.95 1009.39 1009.79 1010.15 1010.23 1010.39 1010.71 1011.03 1011.43 1011.71 1011.87 1012.11 1012.27 1012.47 1012.55 1012.71 1012.83 1012.71 1012.67 1012.87 1013.55 1013.99 1014.39 1014.75 1015.03 1015.39
1002.03 1001.71 1001.39 1000.83 1000.35 999.87 999.55 999.39 998.83 998.27 997.71 997.55 997.47 997.55 997.99 998.59 998.83 999.39 999.83 1000.15 1000.75 1000.99 1001.67 1002.15 1002.75 1003.35 1003.83 1004.23 1004.59 1005.03 1005.51 1006.03 1006.55 1007.07 1007.47 1007.83 1008.23 1008.63 1009.03 1009.35 1009.67 1009.99 1010.11 1010.27 1010.63 1011.03 1011.39 1011.51 1011.79 1011.91 1012.03 1012.19 1012.31 1012.47 1012.59 1012.31 1012.59 1013.11 1013.59 1014.03 1014.47 1014.87 1015.31
1002.51 1001.83 1001.35 1000.67 1000.31 999.87 999.71 999.27 998.87 997.99 997.35 996.67 996.91 997.23 997.47 997.83 998.03 998.71 999.19 999.39 1000.23 1000.83 1001.39 1001.99 1002.63 1003.15 1003.59 1004.07 1004.31 1004.67 1004.99 1005.51 1006.11 1006.63 1007.07 1007.55 1007.95 1008.35 1008.71 1008.95 1009.27 1009.63 1009.71 1009.87 1009.99 1010.19 1010.51 1010.87 1010.99 1011.39 1011.63 1011.67 1011.83 1012.07 1012.27 1011.91 1012.23 1012.79 1013.27 1013.71 1014.19 1014.75 1015.11
1003.39 1002.35 1000.87 999.99 999.55 999.11 998.63 998.31 998.03 997.35 996.59 996.51 996.55 996.87 997.11 997.19 997.63 998.19 998.79 999.47 999.99 1000.63 1001.19 1001.75 1002.51 1002.87 1003.23 1003.59 1003.79 1004.11 1004.51 1004.95 1005.59 1006.19 1006.67 1007.07 1007.59 1007.99 1008.27 1008.59 1008.91 1009.15 1009.19 1009.67 1009.71 1009.87 1010.15 1010.39 1010.55 1010.63 1010.95 1011.23 1011.39 1011.67 1011.75 1011.67 1011.83 1012.39 1012.91 1013.43 1013.95 1014.63 1014.55
1002.91 1002.19 1000.47 999.35 998.95 998.51 997.87 997.31 996.99 996.51 996.19 996.11 996.35 996.15 996.35 996.83 997.47 998.07 998.67 999.19 999.71 1000.47 1000.99 1001.51 1002.07 1002.23 1002.71 1003.07 1003.19 1003.55 1003.99 1004.47 1005.03 1005.75 1006.23 1006.67 1007.15 1007.47 1007.71 1007.95 1008.23 1008.59 1008.67 1009.19 1009.43 1009.51 1009.55 1009.71 1009.99 1010.03 1010.15 1010.47 1010.83 1010.95 1011.35 1011.27 1011.27 1011.91 1012.47 1013.03 1013.59 1013.75 1013.87
1003.11 1002.07 999.99 999.07 998.79 998.27 997.35 996.67 996.19 995.91 995.79 995.87 996.27 995.95 995.91 996.43 997.15 997.95 998.67 998.99 999.47 1000.07 1000.71 1001.11 1001.39 1001.67 1002.11 1002.39 1002.59 1003.07 1003.55 1004.03 1004.59 1005.15 1005.71 1006.27 1006.63 1006.91 1007.39 1007.63 1007.83 1007.95 1008.19 1008.47 1008.71 1008.91 1008.91 1009.11 1009.43 1009.63 1009.67 1009.71 1009.99 1010.31 1010.75 1010.71 1010.79 1011.35 1011.95 1012.55 1013.03 1013.31 1013.23
1003.43 1001.67 999.67 998.67 997.95 997.43 996.99 996.31 996.07 996.11 995.79 995.99 995.99 995.55 995.91 996.31 996.99 997.75 998.35 998.79 999.15 999.87 1000.39 1000.59 1000.67 1000.79 1001.19 1001.75 1002.23 1002.67 1003.15 1003.51 1004.15 1004.63 1005.15 1005.75 1006.15 1006.43 1006.83 1007.03 1007.35 1007.67 1007.91 1008.03 1008.15 1008.47 1008.51 1008.71 1008.95 1009.31 1009.35 1009.27 1009.51 1009.71 1010.03 1010.31 1010.23 1010.75 1011.35 1011.91 1012.43 1012.67 1012.59
1003.03 1000.75 999.39 998.59 997.83 997.59 997.03 996.15 995.91 995.95 995.67 995.55 995.59 995.47 995.75 996.23 996.99 997.83 998.27 998.59 999.15 999.59 999.55 999.63 1000.03 1000.59 1001.11 1001.51 1001.87 1002.31 1002.79 1003.07 1003.55 1004.15 1004.55 1004.95 1005.55 1005.87 1006.27 1006.51 1006.91 1007.15 1007.51 1007.79 1007.79 1008.03 1008.35 1008.47 1008.59 1008.83 1008.99 1008.87 1008.99 1009.11 1009.23 1009.39 1009.79 1010.15 1010.79 1011.31 1011.75 1012.15 1012.27
1002.79 1000.27 998.95 998.07 997.83 997.59 996.87 996.03 995.95 995.83 995.47 995.31 995.59 995.55 995.79 996.27 997.07 997.63 998.11 998.47 998.83 998.71 998.59 999.23 999.79 1000.27 1000.83 1001.35 1001.63 1001.95 1002.43 1002.83 1003.19 1003.63 1004.15 1004.55 1005.11 1005.71 1006.07 1006.11 1006.31 1006.71 1007.07 1007.27 1007.51 1007.95 1008.27 1008.43 1008.47 1008.59 1008.71 1008.63 1008.59 1008.71 1008.87 1008.79 1009.23 1009.39 1010.27 1010.71 1011.27 1011.63 1011.87
1003.47 1001.11 1000.11 998.95 997.87 997.31 996.79 996.27 995.99 995.83 995.43 995.35 995.39 995.43 995.63 996.11 997.03 997.51 997.83 998.15 998.11 997.99 998.39 998.91 999.43 1000.03 1000.59 1001.11 1001.51 1001.83 1002.19 1002.55 1002.99 1003.47 1003.75 1004.27 1004.63 1005.23 1005.79 1005.91 1006.23 1006.47 1006.75 1007.19 1007.47 1007.83 1008.27 1008.51 1008.63 1008.71 1008.75 1008.71 1008.55 1008.43 1008.55 1008.59 1008.79 1009.11 1009.71 1010.35 1010.75 1011.19 1011.63
1003.39 1001.07 1000.11 998.95 997.95 997.39 997.03 996.95 996.43 995.83 995.43 995.31 995.39 995.47 995.67 996.15 997.11 997.43 997.71 997.91 997.67 997.87 998.23 998.79 999.31 999.87 1000.51 1001.03 1001.35 1001.63 1001.95 1002.31 1002.71 1003.15 1003.43 1003.91 1004.35 1004.87 1005.43 1005.75 1005.95 1006.31 1006.63 1006.99 1007.43 1007.75 1008.19 1008.31 1008.43 1008.59 1008.71 1008.75 1008.59 1008.31 1008.07 1008.11 1008.23 1008.71 1009.11 1009.83 1010.39 1010.83 1011.27
1003.51 1001.47 1000.63 999.91 998.95 997.83 997.07 997.11 997.07 996.47 995.71 995.63 995.75 995.75 995.91 996.15 996.99 997.43 997.91 997.67 997.51 997.91 998.31 998.79 999.31 999.91 1000.47 1000.87 1001.15 1001.51 1001.71 1002.11 1002.51 1002.91 1003.23 1003.55 1003.99 1004.71 1005.11 1005.55 1005.75 1006.35 1006.43 1006.79 1007.15 1007.39 1007.79 1007.95 1007.95 1008.31 1008.35 1008.39 1008.39 1008.11 1007.91 1007.67 1007.83 1008.03 1008.59 1009.27 1009.99 1010.55 1011.03
1003.23 1001.11 1000.47 1000.03 999.51 998.71 997.59 996.99 997.07 997.07 997.35 996.67 995.95 996.11 996.23 996.35 996.75 997.67 997.75 997.39 997.59 997.79 998.23 998.79 999.43 1000.03 1000.43 1000.71 1001.03 1001.35 1001.55 1002.11 1002.43 1002.67 1002.95 1003.27 1003.55 1004.07 1004.43 1004.95 1005.35 1005.79 1006.15 1006.39 1006.67 1006.91 1007.27 1007.43 1007.47 1007.67 1007.87 1008.11 1007.95 1007.83 1007.59 1007.47 1007.59 1007.71 1007.91 1008.83 1009.51 1010.23 1010.71
1003.67 1001.71 1000.83 1000.51 1000.07 999.11 998.43 997.99 997.83 997.91 997.79 997.87 997.11 996.71 996.47 996.59 996.71 997.11 997.19 997.51 997.63 997.83 998.27 998.87 999.43 1000.03 1000.35 1000.67 1000.91 1001.19 1001.39 1001.87 1002.11 1002.43 1002.67 1002.99 1003.23 1003.51 1003.95 1004.27 1004.71 1005.15 1005.63 1005.83 1006.11 1006.39 1006.67 1006.87 1006.99 1007.19 1007.31 1007.55 1007.47 1007.43 1007.35 1007.43 1007.43 1007.51 1007.55 1008.03 1008.83 1009.43 1010.19
1003.75 1001.83 1000.75 1000.31 1000.11 999.79 999.39 999.23 999.15 998.87 998.31 998.19 997.87 997.47 997.31 997.27 997.19 997.07 997.15 997.31 997.55 997.83 998.43 999.07 999.47 999.91 1000.23 1000.43 1000.63 1000.99 1001.23 1001.63 1001.83 1002.15 1002.31 1002.59 1002.83 1003.23 1003.51 1003.79 1004.07 1004.55 1005.03 1005.31 1005.51 1005.91 1006.23 1006.35 1006.47 1006.63 1006.75 1006.95 1006.91 1007.03 1007.11 1007.19 1007.19 1007.31 1007.43 1007.43 1007.79 1008.35 1008.83
1003.55 1001.95 1001.15 1000.55 1000.43 1000.15 1000.11 999.91 999.71 999.47 999.11 998.67 998.03 997.83 997.83 997.75 997.63 997.59 997.71 997.75 997.67 997.99 998.67 999.19 999.51 999.79 1000.11 1000.35 1000.59 1000.95 1001.11 1001.35 1001.59 1001.83 1001.95 1002.23 1002.55 1003.55 1004.31 1004.27 1003.79 1003.87 1004.07 1003.99 1004.23 1004.59 1004.95 1005.43 1005.59 1005.67 1005.67 1005.91 1006.19 1006.59 1006.99 1007.15 1007.23 1007.27 1007.07 1007.19 1007.39 1007.59 1007.95
1003.63 1002.23 1001.43 1000.83 1000.43 1000.27 1000.15 999.99 999.87 999.75 999.51 999.15 998.55 998.19 998.03 997.91 997.91 997.91 997.99 998.11 998.23 998.43 998.99 999.35 999.63 999.99 1000.23 1000.27 1000.51 1000.59 1000.95 1001.11 1001.07 1001.31 1001.59 1001.75 1002.83 1004.03 1005.15 1006.03 1005.87 1005.43 1004.79 1004.75 1005.39 1005.47 1005.23 1004.99 1005.11 1005.11 1005.03 1005.35 1006.23 1006.79 1006.59 1007.03 1007.35 1007.67 1007.31 1007.27 1007.55 1007.83 1007.91
1004.19 1002.91 1002.11 1001.51 1000.99 1000.63 1000.55 1000.39 1000.15 999.99 999.83 999.47 999.07 998.91 998.75 998.71 998.63 998.63 998.51 998.47 998.43 998.63 998.99 999.31 999.75 999.99 1000.07 1000.31 1000.39 1000.35 1000.55 1000.75 1000.75 1000.87 1001.31 1001.39 1002.15 1003.07 1004.11 1004.83 1005.67 1006.23 1006.39 1006.19 1006.11 1005.99 1005.87 1005.83 1005.79 1005.67 1005.43 1005.39 1006.55 1007.67 1007.63 1007.43 1007.59 1007.51 1007.51 1007.59 1007.79 1008.03 1008.15
1004.43 1003.63 1002.79 1002.07 1001.63 1001.35 1001.11 1000.87 1000.67 1000.63 1000.51 1000.03 999.71 999.59 999.43 999.47 999.43 999.35 999.11 998.95 998.87 998.75 998.87 999.23 999.67 999.99 999.91 999.99 1000.27 1000.51 1000.71 1000.75 1000.75 1000.67 1001.15 1001.39 1001.95 1002.67 1003.43 1004.11 1005.07 1006.07 1006.87 1006.95 1006.51 1006.51 1006.47 1006.31 1006.15 1006.07 1005.91 1005.83 1005.99 1006.59 1007.59 1007.91 1007.67 1007.59 1007.71 1007.83 1007.95 1008.07 1008.23
Thickness
5850 5850 5851 5849 5848 5847 5846 5846 5844 5842 5839 5836 5833 5831 5830 5828 5827 5825 5823 5822 5819 5816 5817 5815 5814 5813 5811 5810 5808 5808 5807 5806 5806 5805 5804 5804 5805 5805 5804 5804 5803 5803 5803 5803 5803 5803 5803 5804 5803 5802 5801 5799 5798 5798 5796 5795 5794 5794 5794 5792 5792 5792 5791
5852 5852 5854 5852 5851 5850 5850 5850 5848 5846 5844 5841 5838 5835 5834 5832 5830 5828 5826 5824 5822 5820 5819 5818 5817 5816 5814 5813 5811 5810 5809 5808 5808 5808 5807 5806 5807 5807 5808 5807 5806 5805 5806 5807 5807 5807 5806 5805 5804 5803 5802 5801 5800 5800 5798 5797 5797 5796 5796 5795 5794 5793 5793
5854 5856 5858 5857 5856 5855 5854 5852 5851 5850 5849 5847 5844 5841 5839 5837 5835 5832 5829 5827 5824 5822 5821 5820 5819 5817 5816 5815 5813 5811 5811 5811 5810 5810 5808 5809 5809 5809 5810 5809 5809 5809 5809 5809 5809 5808 5808 5807 5805 5804 5804 5803 5802 5802 5801 5800 5799 5798 5798 5798 5797 5796 5794
5855 5860 5863 5861 5861 5859 5856 5856 5854 5854 5854 5853 5851 5848 5845 5842 5839 5836 5833 5830 5827 5824 5824 5823 5821 5820 5818 5816 5815 5813 5814 5813 5813 5812 5811 5812 5811 5811 5811 5810 5810 5811 5811 5811 5811 5810 5810 5808 5807 5806 5805 5804 5804 5804 5803 5803 5802 5801 5801 5800 5798 5798 5796
5857 5862 5864 5863 5863 5860 5859 5859 5858 5857 5857 5857 5856 5852 5849 5845 5842 5839 5836 5834 5832 5830 5828 5826 5823 5822 5820 5819 5818 5817 5817 5816 5815 5815 5814 5814 5814 5813 5812 5812 5812 5812 5812 5813 5813 5811 5810 5809 5808 5807 5806 5805 5805 5805 5805 5804 5804 5804 5803 5802 5801 5800 5799
5861 5862 5864 5865 5865 5863 5864 5864 5864 5864 5862 5861 5859 5856 5854 5849 5846 5844 5840 5837 5835 5832 5830 5828 5827 5825 5822 5822 5821 5820 5819 5818 5818 5817 5815 5815 5815 5814 5814 5814 5814 5814 5814 5815 5814 5813 5811 5810 5810 5808 5808 5807 5807 5807 5807 5806 5806 5806 5805 5803 5802 5802 5801
5864 5865 5867 5870 5870 5870 5869 5868 5869 5869 5867 5865 5862 5858 5856 5853 5851 5848 5844 5841 5839 5836 5833 5832 5831 5830 5826 5825 5824 5822 5821 5820 5820 5818 5817 5817 5816 5815 5815 5816 5816 5816 5816 5816 5815 5815 5813 5811 5811 5810 5810 5810 5809 5809 5809 5808 5808 5808 5807 5805 5803 5803 5802
5866 5869 5870 5873 5875 5875 5875 5873 5873 5872 5868 5866 5863 5859 5858 5857 5854 5851 5848 5847 5844 5841 5839 5837 5836 5834 5831 5830 5827 5825 5824 5823 5822 5820 5819 5819 5818 5817 5817 5817 5817 5817 5817 5816 5816 5817 5815 5813 5813 5812 5811 5810 5810 5810 5810 5809 5809 5809 5808 5806 5804 5803 5803
5869 5870 5872 5876 5879 5880 5880 5877 5874 5872 5868 5865 5864 5863 5861 5859 5858 5856 5854 5852 5848 5845 5844 5843 5841 5838 5834 5831 5830 5828 5826 5825 5825 5823 5821 5820 5819 5819 5819 5819 5819 5818 5818 5818 5818 5818 5817 5816 5816 5814 5813 5812 5811 5810 5810 5810 5809 5810 5810 5807 5805 5804 5804
5871 5871 5873 5877 5880 5881 5881 5877 5873 5869 5866 5864 5865 5864 5862 5861 5861 5859 5857 5855 5853 5851 5849 5846 5845 5841 5837 5834 5832 5830 5828 5827 5827 5826 5824 5823 5823 5822 5822 5822 5822 5821 5819 5819 5820 5819 5818 5818 5818 5816 5814 5812 5811 5811 5811 5810 5811 5810 5810 5809 5808 5806 5805
5868 5870 5871 5873 5876 5877 5876 5874 5870 5868 5867 5866 5865 5865 5864 5862 5862 5861 5860 5859 5858 5855 5852 5849 5847 5844 5840 5837 5834 5832 5830 5829 5829 5829 5827 5827 5827 5826 5825 5825 5824 5823 5821 5821 5821 5821 5820 5818 5818 5817 5815 5813 5813 5812 5812 5812 5812 5811 5811 5812 5811 5809 5808
5858 5862 5862 5864 5868 5869 5870 5870 5868 5867 5868 5867 5867 5868 5866 5864 5864 5864 5863 5862 5861 5858 5854 5852 5850 5847 5842 5839 5836 5834 5833 5832 5832 5832 5830 5830 5830 5829 5828 5827 5827 5825 5823 5823 5822 5822 5821 5820 5819 5818 5817 5815 5815 5814 5814 5814 5814 5813 5813 5813 5813 5812 5810
5849 5854 5856 5858 5860 5861 5863 5864 5863 5864 5865 5866 5868 5869 5868 5867 5866 5866 5864 5863 5862 5861 5857 5854 5852 5848 5844 5841 5839 5837 5836 5835 5835 5835 5834 5833 5832 5832 5831 5830 5829 5827 5825 5825 5824 5823 5823 5822 5821 5820 5819 5817 5816 5817 5816 5816 5815 5815 5814 5814 5814 5813 5811
5842 5848 5851 5853 5855 5856 5858 5859 5860 5861 5863 5865 5866 5867 5868 5867 5866 5866 5865 5863 5863 5862 5859 5856 5853 5850 5846 5843 5841 5839 5839 5839 5838 5836 5835 5834 5833 5832 5832 5831 5830 5829 5827 5826 5825 5825 5825 5824 5822 5821 5820 5819 5819 5819 5818 5817 5816 5816 5815 5815 5815 5814 5812
5839 5846 5849 5850 5851 5853 5856 5857 5859 5859 5861 5864 5865 5865 5866 5866 5865 5865 5863 5862 5863 5862 5861 5859 5855 5851 5848 5844 5843 5843 5842 5840 5839 5837 5835 5833 5831 5831 5832 5832 5831 5829 5828 5827 5825 5826 5826 5826 5825 5822 5821 5821 5820 5820 5820 5819 5818 5819 5818 5816 5815 5815 5814
5833 5840 5844 5847 5849 5851 5854 5856 5858 5859 5860 5862 5863 5864 5866 5866 5866 5866 5865 5864 5864 5863 5863 5861 5856 5852 5849 5847 5846 5845 5843 5841 5839 5837 5834 5832 5831 5830 5830 5830 5829 5829 5827 5826 5826 5826 5826 5826 5825 5824 5822 5821 5821 5821 5821 5822 5822 5821 5819 5818 5817 5816 5815
5824 5829 5834 5840 5846 5850 5853 5855 5857 5858 5859 5860 5863 5866 5867 5868 5868 5868 5867 5866 5865 5864 5865 5862 5857 5854 5852 5850 5848 5846 5843 5840 5838 5836 5833 5832 5830 5829 5829 5829 5829 5828 5827 5826 5825 5825 5825 5824 5824 5825 5825 5823 5822 5823 5823 5825 5825 5823 5820 5819 5818 5818 5817
5817 5822 5826 5832 5837 5842 5848 5852 5856 5857 5859 5863 5867 5867 5869 5870 5870 5867 5867 5868 5868 5867 5866 5863 5859 5856 5853 5851 5849 5845 5843 5840 5838 5836 5833 5831 5831 5829 5828 5828 5827 5826 5826 5825 5825 5825 5825 5825 5824 5824 5826 5825 5825 5825 5825 5827 5827 5824 5821 5820 5819 5818 5818
5811 5816 5823 5828 5831 5837 5843 5850 5856 5859 5862 5867 5869 5871 5874 5875 5873 5871 5872 5873 5871 5869 5867 5864 5860 5855 5852 5851 5849 5846 5844 5841 5838 5836 5834 5833 5831 5829 5828 5827 5826 5827 5826 5826 5826 5825 5825 5825 5825 5825 5825 5826 5826 5826 5828 5829 5828 5825 5822 5820 5820 5818 5818
5805 5811 5818 5824 5829 5836 5841 5846 5853 5861 5866 5869 5873 5877 5879 5879 5877 5875 5873 5871 5869 5867 5864 5862 5858 5854 5851 5850 5850 5847 5844 5841 5839 5836 5835 5834 5832 5829 5828 5827 5827 5827 5827 5827 5826 5825 5825 5825 5825 5825 5826 5826 5827 5826 5828 5831 5830 5826 5823 5821 5820 5818 5817
5799 5805 5811 5819 5826 5832 5838 5842 5848 5858 5867 5873 5876 5879 5878 5877 5877 5874 5871 5870 5869 5866 5863 5860 5856 5853 5850 5849 5850 5848 5845 5842 5840 5837 5835 5834 5832 5830 5829 5828 5828 5827 5828 5828 5827 5827 5826 5826 5826 5826 5826 5827 5828 5827 5828 5831 5831 5827 5824 5822 5820 5817 5816
5790 5798 5808 5817 5823 5829 5835 5840 5847 5858 5868 5875 5877 5877 5877 5878 5880 5876 5872 5871 5868 5865 5862 5858 5854 5851 5850 5848 5849 5848 5847 5844 5840 5837 5836 5833 5832 5831 5830 5830 5829 5829 5829 5828 5829 5829 5828 5827 5828 5828 5827 5829 5829 5828 5829 5832 5831 5828 5825 5823 5820 5816 5816
5781 5792 5808 5819 5825 5831 5837 5843 5852 5861 5871 5876 5876 5877 5879 5880 5881 5877 5871 5869 5867 5863 5861 5857 5853 5852 5850 5849 5850 5849 5848 5846 5842 5839 5836 5834 5832 5831 5832 5832 5830 5829 5829 5828 5829 5830 5830 5829 5830 5831 5831 5830 5830 5830 5830 5832 5832 5829 5826 5823 5820 5817 5817
5777 5789 5808 5820 5824 5831 5840 5849 5858 5866 5873 5875 5876 5880 5882 5880 5878 5875 5869 5867 5866 5863 5859 5857 5855 5854 5852 5851 5852 5851 5849 5847 5843 5840 5837 5835 5834 5833 5833 5832 5831 5831 5831 5830 5829 5831 5832 5832 5832 5833 5834 5834 5833 5832 5831 5833 5834 5831 5827 5824 5821 5820 5821
5773 5788 5807 5820 5825 5832 5842 5854 5861 5867 5872 5873 5874 5880 5882 5879 5878 5873 5867 5866 5866 5862 5859 5858 5858 5858 5855 5854 5854 5853 5850 5847 5845 5841 5838 5836 5835 5834 5833 5832 5832 5832 5832 5832 5831 5832 5834 5834 5833 5834 5836 5836 5836 5835 5833 5834 5836 5833 5829 5826 5823 5823 5824
5768 5787 5806 5819 5826 5835 5844 5853 5858 5862 5867 5870 5872 5878 5879 5878 5876 5870 5865 5866 5865 5861 5861 5862 5862 5861 5857 5856 5855 5853 5851 5849 5846 5843 5841 5838 5836 5835 5834 5833 5832 5832 5831 5832 5833 5833 5834 5836 5835 5835 5836 5837 5838 5838 5836 5836 5837 5835 5831 5829 5826 5825 5826
5769 5790 5806 5817 5826 5833 5841 5850 5855 5858 5864 5868 5871 5874 5876 5876 5873 5866 5864 5864 5863 5863 5866 5866 5864 5860 5856 5855 5855 5853 5851 5850 5848 5845 5843 5840 5838 5835 5835 5834 5834 5833 5832 5832 5833 5834 5834 5835 5836 5835 5836 5838 5840 5840 5840 5840 5839 5837 5834 5831 5829 5827 5827
5766 5788 5803 5814 5824 5829 5836 5847 5852 5854 5861 5865 5866 5869 5872 5872 5868 5863 5863 5864 5864 5868 5870 5867 5862 5858 5855 5854 5854 5853 5852 5850 5848 5846 5843 5841 5838 5835 5834 5835 5834 5833 5833 5832 5833 5832 5831 5832 5834 5834 5835 5837 5840 5841 5842 5842 5842 5840 5836 5833 5831 5828 5827
5760 5781 5796 5808 5819 5826 5833 5842 5846 5850 5858 5861 5863 5866 5869 5868 5864 5861 5863 5865 5868 5870 5869 5865 5861 5858 5855 5854 5853 5852 5852 5849 5847 5846 5844 5842 5840 5836 5833 5834 5834 5833 5833 5832 5831 5830 5829 5829 5831 5831 5832 5835 5838 5841 5842 5843 5842 5841 5837 5834 5831 5828 5826
5756 5775 5789 5800 5812 5823 5829 5833 5839 5846 5853 5856 5858 5861 5864 5864 5861 5859 5862 5866 5867 5868 5866 5863 5861 5857 5854 5853 5852 5851 5851 5849 5847 5845 5843 5842 5840 5836 5834 5833 5833 5833 5832 5831 5829 5829 5828 5828 5828 5829 5830 5832 5835 5839 5842 5844 5843 5841 5838 5834 5830 5827 5824
5753 5771 5784 5792 5803 5815 5823 5827 5831 5837 5844 5850 5853 5855 5858 5861 5859 5857 5859 5863 5864 5864 5863 5860 5858 5855 5854 5853 5851 5850 5849 5847 5846 5844 5843 5842 5840 5837 5834 5833 5832 5831 5831 5830 5830 5829 5828 5828 5829 5830 5830 5831 5834 5838 5841 5843 5843 5842 5839 5835 5829 5826 5823
5749 5768 5780 5785 5793 5805 5817 5823 5826 5827 5831 5838 5845 5850 5853 5856 5857 5854 5856 5860 5861 5861 5860 5857 5855 5853 5852 5850 5849 5848 5847 5845 5844 5843 5843 5842 5841 5838 5836 5835 5834 5832 5831 5831 5830 5830 5829 5829 5830 5831 5831 5832 5834 5837 5840 5841 5842 5842 5841 5836 5830 5825 5822
5744 5763 5775 5780 5786 5796 5806 5812 5815 5818 5821 5825 5834 5842 5847 5851 5854 5854 5855 5857 5857 5857 5856 5854 5852 5850 5849 5848 5847 5846 5846 5844 5843 5843 5842 5841 5841 5840 5838 5837 5836 5834 5832 5832 5832 5831 5830 5831 5832 5833 5833 5833 5835 5837 5839 5840 5840 5841 5841 5838 5833 5829 5823
5741 5758 5771 5777 5782 5788 5794 5799 5802 5808 5813 5818 5825 5833 5839 5843 5847 5850 5852 5853 5854 5854 5851 5850 5849 5848 5847 5846 5845 5844 5844 5843 5842 5842 5842 5842 5842 5841 5839 5840 5840 5838 5836 5836 5836 5834 5832 5832 5834 5835 5835 5836 5836 5836 5836 5837 5838 5839 5839 5839 5837 5834 5829
5737 5753 5765 5772 5777 5782 5787 5790 5795 5800 5805 5813 5821 5828 5833 5836 5840 5843 5845 5846 5848 5849 5846 5844 5845 5844 5843 5843 5842 5841 5841 5841 5841 5841 5842 5842 5839 5834 5830 5831 5835 5838 5839 5839 5838 5837 5837 5837 5838 5839 5840 5840 5838 5836 5836 5835 5834 5835 5837 5838 5837 5836 5834
5732 5747 5759 5765 5772 5778 5781 5786 5791 5794 5799 5806 5814 5821 5826 5830 5833 5836 5837 5840 5842 5842 5841 5840 5840 5839 5839 5839 5839 5838 5839 5840 5841 5842 5842 5841 5838 5829 5822 5821 5822 5826 5830 5832 5831 5832 5835 5836 5837 5839 5842 5840 5834 5832 5833 5833 5830 5831 5834 5834 5833 5832 5832
5723 5737 5748 5757 5765 5770 5775 5779 5785 5788 5793 5800 5806 5812 5816 5820 5824 5827 5830 5834 5836 5837 5837 5836 5834 5834 5836 5836 5835 5837 5838 5838 5840 5842 5842 5841 5838 5832 5826 5821 5817 5815 5817 5820 5822 5824 5826 5829 5830 5833 5836 5837 5831 5826 5825 5827 5827 5828 5829 5829 5828 5828 5828
5717 5729 5739 5748 5756 5762 5767 5772 5777 5781 5786 5792 5798 5803 5807 5810 5814 5818 5822 5826 5829 5832 5833 5832 5831 5832 5834 5834 5833 5834 5835 5835 5838 5839 5839 5837 5835 5831 5827 5824 5819 5812 5808 5810 5813 5816 5818 5820 5824 5826 5828 5831 5831 5827 5822 5821 5822 5824 5823 5823 5823 5823 5822